Total_Precipitation_Accumulation
1.32 1.21 1.14 1.18 1.16 1.14 1.17 1.20 1.12 1.02 0.99 0.94 0.91 0.86 0.82 0.70 0.60 0.58 0.54 0.53 0.51 0.59 0.85 1.10 1.29 1.54 1.79 1.99 2.16 2.14 1.86 1.69 1.56 1.43 1.42 1.53 1.59 1.58 1.59 1.68 1.81 1.78 1.65
1.41 1.31 1.20 1.17 1.16 1.13 1.14 1.13 1.09 1.00 0.93 0.84 0.79 0.78 0.84 0.81 0.73 0.67 0.59 0.56 0.54 0.55 0.71 0.95 1.21 1.47 1.76 2.07 2.31 2.49 2.26 2.09 1.90 1.70 1.52 1.51 1.61 1.66 1.66 1.71 1.81 1.96 1.99
1.59 1.52 1.40 1.27 1.17 1.15 1.18 1.20 1.15 1.12 1.01 0.87 0.77 0.73 0.73 0.74 0.75 0.71 0.63 0.58 0.58 0.58 0.66 0.84 1.06 1.31 1.61 1.98 2.32 2.56 2.67 2.46 2.27 2.09 1.85 1.63 1.62 1.73 1.81 1.88 1.93 2.04 2.13
1.86 1.78 1.67 1.53 1.40 1.29 1.23 1.23 1.17 1.13 1.07 0.96 0.85 0.76 0.71 0.69 0.66 0.64 0.60 0.59 0.61 0.62 0.67 0.78 0.89 1.15 1.42 1.68 2.05 2.39 2.77 2.74 2.68 2.55 2.40 2.07 1.82 1.81 1.92 2.01 2.14 2.20 2.21
2.08 2.02 1.91 1.79 1.71 1.58 1.42 1.31 1.25 1.15 1.07 1.00 0.96 0.90 0.80 0.73 0.69 0.67 0.60 0.55 0.53 0.56 0.61 0.69 0.77 0.93 1.16 1.43 1.76 2.12 2.51 2.87 2.99 2.99 2.93 2.72 2.32 2.02 2.03 2.15 2.22 2.36 2.46
2.35 2.27 2.15 1.99 1.94 1.85 1.71 1.54 1.41 1.28 1.15 1.06 1.05 1.04 0.94 0.86 0.78 0.70 0.64 0.60 0.55 0.54 0.58 0.63 0.65 0.72 0.91 1.13 1.43 1.83 2.24 2.71 3.11 3.22 3.21 3.22 3.09 2.65 2.40 2.40 2.40 2.51 2.67
2.50 2.53 2.36 2.24 2.16 2.03 1.81 1.68 1.64 1.55 1.38 1.24 1.22 1.24 1.11 0.96 0.92 0.80 0.68 0.61 0.58 0.54 0.55 0.62 0.66 0.65 0.75 0.94 1.11 1.39 1.86 2.35 2.90 3.47 3.52 3.45 3.54 3.36 2.98 2.80 2.72 2.78 2.96
2.43 2.66 2.58 2.41 2.30 2.22 2.11 1.89 1.75 1.73 1.66 1.45 1.32 1.36 1.38 1.30 1.08 0.89 0.77 0.65 0.61 0.59 0.58 0.59 0.65 0.67 0.68 0.77 0.88 1.11 1.44 1.94 2.47 3.22 3.91 4.00 4.04 4.14 3.77 3.35 3.18 3.17 3.27
2.16 2.27 2.37 2.28 2.29 2.26 2.21 2.09 1.91 1.82 1.85 1.70 1.43 1.48 1.55 1.39 1.10 0.94 0.84 0.75 0.67 0.63 0.61 0.59 0.62 0.66 0.69 0.77 0.82 0.92 1.13 1.51 2.01 2.63 3.48 4.24 4.49 4.71 4.66 4.03 3.68 3.60 3.59
2.10 2.13 2.20 2.22 2.08 2.03 2.00 2.01 1.99 1.88 1.91 1.91 1.68 1.41 1.29 1.22 1.27 1.15 0.93 0.85 0.84 0.77 0.69 0.63 0.61 0.67 0.70 0.77 0.88 0.93 1.00 1.18 1.58 2.13 2.85 3.78 4.60 5.04 5.35 4.98 4.31 4.07 3.98
2.07 2.17 2.15 2.18 2.20 2.05 1.88 1.83 1.89 1.92 1.90 1.86 1.75 1.55 1.33 1.12 1.07 1.22 1.08 0.93 0.96 0.94 0.88 0.80 0.74 0.74 0.75 0.81 0.86 0.96 1.09 1.17 1.52 1.85 2.29 2.97 4.06 4.98 5.65 5.79 5.20 4.53 4.21
1.87 2.01 2.11 2.08 2.08 2.11 2.04 1.86 1.80 1.86 1.85 1.80 1.73 1.63 1.52 1.40 1.19 1.17 1.12 0.91 0.89 0.89 0.93 0.98 0.95 0.92 0.90 0.91 1.00 1.21 1.22 1.31 1.57 1.71 1.84 2.17 2.94 4.01 4.96 5.55 5.41 4.79 4.38
1.75 1.78 1.90 1.97 1.93 1.94 1.99 1.97 1.88 1.84 1.83 1.83 1.76 1.63 1.50 1.40 1.30 1.32 1.36 1.17 0.96 0.84 0.88 0.96 0.98 1.02 1.06 1.04 1.15 1.29 1.27 1.42 1.52 1.62 1.65 1.80 2.19 2.98 3.92 4.84 5.30 5.00 4.53
1.61 1.59 1.64 1.74 1.74 1.70 1.75 1.87 1.87 1.79 1.79 1.81 1.78 1.73 1.65 1.45 1.37 1.44 1.53 1.61 1.45 1.04 0.87 0.89 0.92 0.99 1.12 1.17 1.28 1.43 1.34 1.46 1.53 1.60 1.66 1.69 1.84 2.15 2.84 3.88 5.14 5.58 4.95
1.58 1.60 1.59 1.59 1.56 1.55 1.55 1.59 1.65 1.63 1.67 1.71 1.72 1.75 1.76 1.62 1.49 1.44 1.48 1.68 2.01 1.77 1.14 0.86 0.89 0.97 1.07 1.19 1.39 1.26 1.17 1.29 1.36 1.43 1.54 1.62 1.71 1.83 2.10 2.71 3.68 5.03 5.68
1.55 1.59 1.59 1.58 1.53 1.47 1.51 1.53 1.48 1.41 1.48 1.54 1.59 1.67 1.71 1.64 1.54 1.48 1.51 1.54 1.66 1.88 1.56 0.94 0.86 0.91 1.05 1.14 1.31 1.20 1.21 1.40 1.38 1.41 1.48 1.56 1.64 1.71 1.85 2.13 2.66 3.51 4.71
1.46 1.44 1.47 1.51 1.51 1.46 1.45 1.54 1.51 1.42 1.42 1.43 1.46 1.50 1.52 1.54 1.56 1.49 1.49 1.50 1.47 1.55 1.58 1.03 0.86 0.90 1.09 1.18 1.19 1.15 1.20 1.25 1.26 1.42 1.47 1.50 1.57 1.65 1.83 2.03 2.32 2.76 3.42
1.42 1.42 1.40 1.43 1.45 1.47 1.48 1.52 1.50 1.43 1.40 1.39 1.40 1.39 1.38 1.42 1.49 1.44 1.41 1.38 1.33 1.28 1.36 1.20 0.95 0.94 1.03 1.10 1.20 1.27 1.27 1.27 1.21 1.36 1.40 1.49 1.62 1.68 1.78 1.98 2.23 2.52 2.87
1.37 1.39 1.41 1.40 1.44 1.49 1.51 1.46 1.47 1.43 1.37 1.35 1.36 1.37 1.32 1.38 1.44 1.39 1.39 1.33 1.24 1.16 1.18 1.22 1.06 0.96 1.01 1.06 1.24 1.39 1.39 1.39 1.33 1.38 1.42 1.49 1.59 1.70 1.78 1.89 2.12 2.34 2.52
1.37 1.32 1.32 1.36 1.46 1.62 1.69 1.67 1.70 1.56 1.44 1.37 1.32 1.28 1.29 1.40 1.44 1.45 1.50 1.40 1.32 1.34 1.34 1.39 1.27 1.13 1.13 1.14 1.33 1.59 1.69 1.64 1.57 1.39 1.45 1.51 1.62 1.74 1.78 1.78 1.86 1.98 2.13
1.37 1.29 1.28 1.34 1.43 1.80 2.20 2.21 2.11 1.82 1.52 1.36 1.27 1.24 1.30 1.44 1.50 1.68 1.81 1.69 1.66 1.76 1.73 1.71 1.60 1.49 1.40 1.42 1.50 1.55 1.73 1.77 1.76 1.58 1.47 1.39 1.42 1.45 1.55 1.68 1.76 1.82 1.93
1.46 1.35 1.29 1.31 1.36 1.65 2.36 2.53 2.17 1.69 1.48 1.35 1.29 1.23 1.23 1.38 1.41 1.54 1.74 1.84 1.89 2.02 2.10 2.06 1.94 1.79 1.52 1.42 1.45 1.61 1.71 1.92 2.01 1.69 1.59 1.54 1.48 1.57 1.52 1.53 1.76 1.80 1.87
1.57 1.55 1.39 1.29 1.26 1.46 2.15 2.33 2.05 1.61 1.42 1.33 1.27 1.25 1.25 1.30 1.38 1.35 1.48 1.55 1.59 1.75 1.98 2.09 2.14 1.72 1.49 1.42 1.65 1.87 1.83 1.92 1.89 1.79 1.91 1.88 1.58 1.62 1.56 1.68 1.91 1.83 1.85
1.49 1.55 1.49 1.38 1.27 1.35 1.94 2.14 1.94 1.59 1.44 1.34 1.25 1.23 1.23 1.26 1.36 1.57 1.54 1.49 1.39 1.40 1.60 1.80 2.06 1.88 1.68 1.71 2.06 2.39 2.49 2.36 1.95 1.74 1.92 2.15 1.69 1.60 1.65 1.77 1.95 1.89 1.81
1.39 1.40 1.39 1.40 1.35 1.33 1.71 2.01 1.84 1.51 1.46 1.36 1.24 1.22 1.24 1.24 1.51 1.79 1.70 1.55 1.37 1.27 1.38 1.71 2.03 2.16 2.21 2.34 2.58 2.89 3.05 2.88 2.40 1.84 1.80 2.11 1.90 1.70 1.86 2.08 2.15 2.10 1.85
1.32 1.32 1.33 1.34 1.28 1.23 1.53 1.83 1.83 1.50 1.41 1.35 1.27 1.24 1.39 1.48 1.68 1.82 1.66 1.62 1.70 1.46 1.30 1.36 1.47 1.59 1.66 1.82 2.22 2.50 2.82 2.94 2.56 2.31 1.92 2.04 2.16 2.17 2.49 2.34 2.19 2.03 1.82